Year,Month,Day,Hour,Minute,Value (Times are PST for barometer in hPa)
2021,12,02,00,00,1009.08
2021,12,02,00,01,1009.08
2021,12,02,00,02,1009.08
2021,12,02,00,03,1009.08
2021,12,02,00,04,1015.27
2021,12,02,00,05,1018.17
2021,12,02,00,06,1018.19
2021,12,02,00,07,1018.19
2021,12,02,00,08,1018.19
2021,12,02,00,09,1018.19
2021,12,02,00,10,1016.98
2021,12,02,00,11,1016.46
2021,12,02,00,12,1016.46
2021,12,02,00,13,1016.46
2021,12,02,00,14,1016.46
2021,12,02,00,15,1016.46
2021,12,02,00,16,1016.46
2021,12,02,00,17,1016.46
2021,12,02,00,18,1013.95
2021,12,02,00,19,1012.87
2021,12,02,00,20,1012.87
2021,12,02,00,21,1012.87
2021,12,02,00,22,1012.87
2021,12,02,00,23,1012.87
2021,12,02,00,24,1012.87
2021,12,02,00,25,1012.87
2021,12,02,00,26,1012.87
2021,12,02,00,27,1012.87
2021,12,02,00,28,1012.87
2021,12,02,00,29,1012.87
2021,12,02,00,30,1012.87
2021,12,02,00,31,1012.87
2021,12,02,00,32,1012.87
2021,12,02,00,33,1012.87
2021,12,02,00,34,1012.87
2021,12,02,00,35,1012.87
2021,12,02,00,36,1012.87
2021,12,02,00,37,1012.87
2021,12,02,00,38,1012.87
2021,12,02,00,39,1012.87
2021,12,02,00,40,1012.87
2021,12,02,00,41,1012.87
2021,12,02,00,42,1012.87
2021,12,02,00,43,1012.87
2021,12,02,00,44,1012.87
2021,12,02,00,45,1012.87
2021,12,02,00,46,1012.87
2021,12,02,00,47,1012.87
2021,12,02,00,48,1012.87
2021,12,02,00,49,1012.87
2021,12,02,00,50,1012.87
2021,12,02,00,51,1012.87
2021,12,02,00,52,1012.87
2021,12,02,00,53,1012.87
2021,12,02,00,54,1012.87
2021,12,02,00,55,1012.87
2021,12,02,00,56,1012.87
2021,12,02,00,57,1012.87
2021,12,02,00,58,1012.87
2021,12,02,00,59,1015.88
2021,12,02,01,00,1017.17
2021,12,02,01,01,1017.17
2021,12,02,01,02,1016.11
2021,12,02,01,03,1015.54
2021,12,02,01,04,1012.56
2021,12,02,01,05,1011.18
2021,12,02,01,06,1011.18
2021,12,02,01,07,1011.18
2021,12,02,01,08,1011.18
2021,12,02,01,09,1011.18
2021,12,02,01,10,1011.18
2021,12,02,01,11,1011.18
2021,12,02,01,12,1011.18
2021,12,02,01,13,1011.18
2021,12,02,01,14,1011.18
2021,12,02,01,15,1011.18
2021,12,02,01,16,1011.18
2021,12,02,01,17,1011.18
2021,12,02,01,18,1011.18
2021,12,02,01,19,1012.03
2021,12,02,01,20,1012.40
2021,12,02,01,21,1012.40
2021,12,02,01,22,1015.45
2021,12,02,01,23,1016.76
2021,12,02,01,24,1016.76
2021,12,02,01,25,1016.76
2021,12,02,01,26,1016.76
2021,12,02,01,27,1016.76
2021,12,02,01,28,1016.76
2021,12,02,01,29,1008.07
2021,12,02,01,30,1004.34
2021,12,02,01,31,1004.34
2021,12,02,01,32,1004.34
2021,12,02,01,33,1003.96
2021,12,02,01,34,1003.79
2021,12,02,01,35,1003.79
2021,12,02,01,36,1003.79
2021,12,02,01,37,1003.79
2021,12,02,01,38,1003.79
2021,12,02,01,39,1003.79
2021,12,02,01,40,1003.79
2021,12,02,01,41,1003.79
2021,12,02,01,42,1003.79
2021,12,02,01,43,1003.79
2021,12,02,01,44,1003.79
2021,12,02,01,45,1011.91
2021,12,02,01,46,1016.29
2021,12,02,01,47,1016.29
2021,12,02,01,48,1008.81
2021,12,02,01,49,1004.80
2021,12,02,01,50,1004.62
2021,12,02,01,51,1004.59
2021,12,02,01,52,1004.52
2021,12,02,01,53,1004.47
2021,12,02,01,54,1004.47
2021,12,02,01,55,1004.47
2021,12,02,01,56,1004.47
2021,12,02,01,57,1004.47
2021,12,02,01,58,1004.47
2021,12,02,01,59,1004.47
2021,12,02,02,00,1004.47
2021,12,02,02,01,1004.47
2021,12,02,02,02,1004.47
2021,12,02,02,03,1011.61
2021,12,02,02,04,1014.90
2021,12,02,02,05,1013.55
2021,12,02,02,06,1013.28
2021,12,02,02,07,1013.41
2021,12,02,02,08,1014.05
2021,12,02,02,09,1014.39
2021,12,02,02,10,1018.54
2021,12,02,02,11,1020.59
2021,12,02,02,12,1020.44
2021,12,02,02,13,1020.01
2021,12,02,02,14,1020.31
2021,12,02,02,15,1020.39
2021,12,02,02,16,1020.62
2021,12,02,02,17,1020.76
2021,12,02,02,18,1020.76
2021,12,02,02,19,1020.76
2021,12,02,02,20,1020.76
2021,12,02,02,21,1020.76
2021,12,02,02,22,1020.76
2021,12,02,02,23,1020.76
2021,12,02,02,24,1020.76
2021,12,02,02,25,1020.76
2021,12,02,02,26,1020.76
2021,12,02,02,27,1020.76
2021,12,02,02,28,1020.76
2021,12,02,02,29,1020.76
2021,12,02,02,30,1021.24
2021,12,02,02,31,1021.55
2021,12,02,02,32,1021.60
2021,12,02,02,33,1021.61
2021,12,02,02,34,1021.61
2021,12,02,02,35,1021.61
2021,12,02,02,36,1021.56
2021,12,02,02,37,1021.54
2021,12,02,02,38,1021.54
2021,12,02,02,39,1021.54
2021,12,02,02,40,1021.36
2021,12,02,02,41,1020.91
2021,12,02,02,42,1020.97
2021,12,02,02,43,1021.35
2021,12,02,02,44,1021.46
2021,12,02,02,45,1021.34
2021,12,02,02,46,1021.30
2021,12,02,02,47,1021.30
2021,12,02,02,48,1017.87
2021,12,02,02,49,1016.02
2021,12,02,02,50,1016.02
2021,12,02,02,51,1016.02
2021,12,02,02,52,1017.87
2021,12,02,02,53,1018.68
2021,12,02,02,54,1018.66
2021,12,02,02,55,1018.66
2021,12,02,02,56,1018.66
2021,12,02,02,57,1018.66
2021,12,02,02,58,1018.49
2021,12,02,02,59,1018.42
2021,12,02,03,00,1018.42
2021,12,02,03,01,1019.37
2021,12,02,03,02,1019.88
2021,12,02,03,03,1019.88
2021,12,02,03,06,1019.61
2021,12,02,03,07,1019.61
2021,12,02,03,08,1019.61
2021,12,02,03,09,1019.61
2021,12,02,03,10,1019.61
2021,12,02,03,11,1019.61
2021,12,02,03,12,1019.61
2021,12,02,03,13,1019.61
2021,12,02,03,14,1019.61
2021,12,02,03,15,1019.81
2021,12,02,03,16,1019.85
2021,12,02,03,17,1019.85
2021,12,02,03,18,1019.85
2021,12,02,03,19,1021.02
2021,12,02,03,20,1021.20
2021,12,02,03,21,1021.26
2021,12,02,03,22,1021.27
2021,12,02,03,23,1020.11
2021,12,02,03,24,1019.91
2021,12,02,03,25,1019.91
2021,12,02,03,26,1019.91
2021,12,02,03,27,1019.91
2021,12,02,03,28,1018.61
2021,12,02,03,29,1018.46
2021,12,02,03,30,1018.46
2021,12,02,03,31,1018.46
2021,12,02,03,32,1018.46
2021,12,02,03,33,1018.46
2021,12,02,03,34,1018.46
2021,12,02,03,35,1018.46
2021,12,02,03,36,1018.46
2021,12,02,03,37,1018.46
2021,12,02,03,38,1018.46
2021,12,02,03,39,1018.46
2021,12,02,03,40,1013.46
2021,12,02,03,41,1012.90
2021,12,02,03,42,1012.90
2021,12,02,03,43,1012.90
2021,12,02,03,44,1012.90
2021,12,02,03,45,1020.27
2021,12,02,03,46,1021.57
2021,12,02,03,47,1021.57
2021,12,02,03,48,1021.57
2021,12,02,03,49,1021.57
2021,12,02,03,50,1021.57
2021,12,02,03,51,1021.57
2021,12,02,03,52,1021.61
2021,12,02,03,53,1021.61
2021,12,02,03,54,1021.61
2021,12,02,03,55,1021.61
2021,12,02,03,56,1021.61
2021,12,02,03,57,1021.61
2021,12,02,03,58,1021.61
2021,12,02,03,59,1021.66
2021,12,02,04,00,1021.67
2021,12,02,04,01,1021.67
2021,12,02,04,02,1021.67
2021,12,02,04,03,1021.67
2021,12,02,04,04,1021.79
2021,12,02,04,05,1021.81
2021,12,02,04,06,1021.81
2021,12,02,04,07,1021.81
2021,12,02,04,08,1021.81
2021,12,02,04,09,1021.81
2021,12,02,04,10,1021.81
2021,12,02,04,11,1021.73
2021,12,02,04,12,1021.68
2021,12,02,04,13,1021.64
2021,12,02,04,14,1021.55
2021,12,02,04,15,1021.51
2021,12,02,04,16,1021.53
2021,12,02,04,17,1021.60
2021,12,02,04,18,1021.66
2021,12,02,04,19,1021.67
2021,12,02,04,20,1021.67
2021,12,02,04,21,1021.76
2021,12,02,04,22,1021.83
2021,12,02,04,23,1021.84
2021,12,02,04,24,1021.84
2021,12,02,04,25,1021.84
2021,12,02,04,26,1021.84
2021,12,02,04,27,1021.84
2021,12,02,04,28,1021.84
2021,12,02,04,29,1021.39
2021,12,02,04,30,1021.39
2021,12,02,04,31,1021.43
2021,12,02,04,32,1021.41
2021,12,02,04,33,1021.40
2021,12,02,04,34,1021.40
2021,12,02,04,35,1021.40
2021,12,02,04,36,1021.40
2021,12,02,04,37,1021.40
2021,12,02,04,38,1021.40
2021,12,02,04,39,1021.40
2021,12,02,04,40,1020.72
2021,12,02,04,41,1020.59
2021,12,02,04,42,1020.59
2021,12,02,04,43,1020.59
2021,12,02,04,44,1013.93
2021,12,02,04,45,1012.26
2021,12,02,04,46,1012.26
2021,12,02,04,47,1012.26
2021,12,02,04,48,1012.26
2021,12,02,04,49,1012.26
2021,12,02,04,50,1010.58
2021,12,02,04,51,1010.26
2021,12,02,04,52,1010.26
2021,12,02,04,53,1020.28
2021,12,02,04,54,1022.22
2021,12,02,04,55,1022.19
2021,12,02,04,56,1022.18
2021,12,02,04,57,1022.18
2021,12,02,04,58,1022.12
2021,12,02,04,59,1022.11
2021,12,02,05,00,1022.11
2021,12,02,05,01,1022.11
2021,12,02,05,02,1020.90
2021,12,02,05,03,1020.66
2021,12,02,05,04,1020.66
2021,12,02,05,05,1020.66
2021,12,02,05,06,1020.66
2021,12,02,05,07,1020.66
2021,12,02,05,08,1020.66
2021,12,02,05,09,1014.52
2021,12,02,05,10,1013.44
2021,12,02,05,11,1013.44
2021,12,02,05,12,1013.44
2021,12,02,05,13,1013.44
2021,12,02,05,14,1013.44
2021,12,02,05,15,1013.44
2021,12,02,05,16,1013.44
2021,12,02,05,17,1013.44
2021,12,02,05,18,1020.80
2021,12,02,05,19,1022.18
2021,12,02,05,20,1022.18
2021,12,02,05,21,1022.21
2021,12,02,05,22,1022.27
2021,12,02,05,23,1022.31
2021,12,02,05,24,1022.32
2021,12,02,05,25,1022.29
2021,12,02,05,26,1022.28
2021,12,02,05,27,1022.34
2021,12,02,05,28,1022.35
2021,12,02,05,29,1022.41
2021,12,02,05,30,1022.42
2021,12,02,05,31,1022.44
2021,12,02,05,32,1022.45
2021,12,02,05,33,1022.43
2021,12,02,05,34,1022.42
2021,12,02,05,35,1022.42
2021,12,02,05,36,1022.42
2021,12,02,05,37,1022.40
2021,12,02,05,38,1022.36
2021,12,02,05,39,1022.29
2021,12,02,05,40,1022.26
2021,12,02,05,41,1022.11
2021,12,02,05,42,1022.05
2021,12,02,05,43,1022.19
2021,12,02,05,44,1022.24
2021,12,02,05,45,1022.25
2021,12,02,05,46,1022.25
2021,12,02,05,47,1022.25
2021,12,02,05,48,1022.23
2021,12,02,05,49,1022.22
2021,12,02,05,50,1022.22
2021,12,02,05,51,1022.25
2021,12,02,05,52,1022.23
2021,12,02,05,53,1022.22
2021,12,02,05,54,1022.24
2021,12,02,05,55,1022.19
2021,12,02,05,56,1022.18
2021,12,02,05,57,1022.18
2021,12,02,05,58,1022.12
2021,12,02,05,59,1022.09
2021,12,02,06,00,1022.10
2021,12,02,06,01,1022.06
2021,12,02,06,02,1022.02
2021,12,02,06,03,1022.01
2021,12,02,06,04,1020.82
2021,12,02,06,05,1020.52
2021,12,02,06,06,1020.52
2021,12,02,06,07,1015.75
2021,12,02,06,08,1014.63
2021,12,02,06,09,1012.36
2021,12,02,06,10,1011.79
2021,12,02,06,11,1011.79
2021,12,02,06,12,1011.79
2021,12,02,06,13,1019.94
2021,12,02,06,14,1021.98
2021,12,02,06,15,1021.98
2021,12,02,06,16,1021.98
2021,12,02,06,17,1021.95
2021,12,02,06,18,1021.94
2021,12,02,06,19,1021.94
2021,12,02,06,20,1021.94
2021,12,02,06,21,1021.97
2021,12,02,06,22,1021.98
2021,12,02,06,23,1022.04
2021,12,02,06,24,1022.10
2021,12,02,06,25,1022.20
2021,12,02,06,26,1022.33
2021,12,02,06,27,1022.41
2021,12,02,06,28,1022.50
2021,12,02,06,29,1022.54
2021,12,02,06,30,1022.53
2021,12,02,06,31,1022.54
2021,12,02,06,32,1022.53
2021,12,02,06,33,1022.46
2021,12,02,06,34,1022.45
2021,12,02,06,35,1022.45
2021,12,02,06,36,1022.16
2021,12,02,06,37,1022.11
2021,12,02,06,38,1022.11
2021,12,02,06,39,1022.63
2021,12,02,06,40,1022.78
2021,12,02,06,41,1022.57
2021,12,02,06,42,1022.52
2021,12,02,06,43,1022.52
2021,12,02,06,44,1022.52
2021,12,02,06,45,1022.69
2021,12,02,06,46,1022.70
2021,12,02,06,47,1022.77
2021,12,02,06,48,1022.82
2021,12,02,06,49,1022.85
2021,12,02,06,50,1022.89
2021,12,02,06,51,1022.89
2021,12,02,06,52,1022.92
2021,12,02,06,53,1022.90
2021,12,02,06,54,1022.95
2021,12,02,06,55,1022.96
2021,12,02,06,56,1022.96
2021,12,02,06,57,1022.96
2021,12,02,06,58,1022.96
2021,12,02,06,59,1022.96
2021,12,02,07,00,1022.96
2021,12,02,07,01,1022.96
2021,12,02,07,02,1022.96
2021,12,02,07,03,1022.96
2021,12,02,07,04,1022.96
2021,12,02,07,05,1022.96
2021,12,02,07,06,1022.96
2021,12,02,07,07,1022.96
2021,12,02,07,08,1022.96
2021,12,02,07,09,1022.96
2021,12,02,07,10,1022.96
2021,12,02,07,11,1023.12
2021,12,02,07,12,1023.16
2021,12,02,07,13,1023.22
2021,12,02,07,14,1023.23
2021,12,02,07,15,1023.23
2021,12,02,07,16,1022.12
2021,12,02,07,17,1021.84
2021,12,02,07,18,1021.84
2021,12,02,07,19,1021.84
2021,12,02,07,20,1018.54
2021,12,02,07,21,1017.71
2021,12,02,07,22,1017.71
2021,12,02,07,23,1017.71
2021,12,02,07,24,1017.71
2021,12,02,07,25,1017.71
2021,12,02,07,26,1017.71
2021,12,02,07,27,1017.71
2021,12,02,07,28,1017.71
2021,12,02,07,29,1017.71
2021,12,02,07,30,1017.71
2021,12,02,07,31,1017.71
2021,12,02,07,32,1017.71
2021,12,02,07,33,1017.71
2021,12,02,07,34,1017.71
2021,12,02,07,35,1017.71
2021,12,02,07,36,1017.71
2021,12,02,07,37,1017.71
2021,12,02,07,38,1017.71
2021,12,02,07,39,1012.81
2021,12,02,07,40,1011.58
2021,12,02,07,41,1011.58
2021,12,02,07,42,1011.58
2021,12,02,07,43,1011.58
2021,12,02,07,44,1011.58
2021,12,02,07,45,1011.58
2021,12,02,07,46,1011.58
2021,12,02,07,47,1009.44
2021,12,02,07,48,1008.91
2021,12,02,07,49,1008.91
2021,12,02,07,50,1008.91
2021,12,02,07,51,1008.91
2021,12,02,07,52,1008.91
2021,12,02,07,53,1008.91
2021,12,02,07,54,1017.82
2021,12,02,07,55,1020.05
2021,12,02,07,56,1020.05
2021,12,02,07,57,1020.75
2021,12,02,07,58,1020.44
2021,12,02,07,59,1020.32
2021,12,02,08,00,1016.10
2021,12,02,08,01,1015.05
2021,12,02,08,02,1015.14
2021,12,02,08,03,1015.14
2021,12,02,08,04,1015.14
2021,12,02,08,05,1015.14
2021,12,02,08,06,1015.14
2021,12,02,08,07,1015.14
2021,12,02,08,08,1015.14
2021,12,02,08,09,1015.14
2021,12,02,08,10,1015.14
2021,12,02,08,11,1015.14
2021,12,02,08,12,1015.14
2021,12,02,08,13,1015.14
2021,12,02,08,14,1015.14
2021,12,02,08,15,1015.14
2021,12,02,08,16,1012.40
2021,12,02,08,17,1011.72
2021,12,02,08,18,1011.72
2021,12,02,08,19,1011.72
2021,12,02,08,20,1011.72
2021,12,02,08,21,1012.18
2021,12,02,08,22,1012.15
2021,12,02,08,23,1012.12
2021,12,02,08,24,1012.12
2021,12,02,08,25,1012.12
2021,12,02,08,26,1011.38
2021,12,02,08,27,1011.18
2021,12,02,08,28,1011.18
2021,12,02,08,29,1013.40
2021,12,02,08,30,1013.82
2021,12,02,08,31,1011.65
2021,12,02,08,32,1011.11
2021,12,02,08,33,1011.11
2021,12,02,08,34,1011.11
2021,12,02,08,35,1011.11
2021,12,02,08,36,1011.11
2021,12,02,08,37,1010.04
2021,12,02,08,38,1009.69
2021,12,02,08,39,1009.69
2021,12,02,08,40,1009.69
2021,12,02,08,41,1009.69
2021,12,02,08,42,1009.69
2021,12,02,08,43,1005.14
2021,12,02,08,44,1003.93
2021,12,02,08,45,1003.93
2021,12,02,08,46,1003.93
2021,12,02,08,47,1003.93
2021,12,02,08,48,1003.93
2021,12,02,08,49,1003.93
2021,12,02,08,50,1003.93
2021,12,02,08,51,1003.93
2021,12,02,08,52,1003.93
2021,12,02,08,53,1003.93
2021,12,02,08,54,995.83
2021,12,02,08,55,993.80
2021,12,02,08,56,993.80
2021,12,02,08,57,993.80
2021,12,02,08,58,991.39
2021,12,02,08,59,990.79
2021,12,02,09,00,990.79
2021,12,02,09,01,990.79
2021,12,02,09,02,989.87
2021,12,02,09,03,989.64
2021,12,02,09,04,989.64
2021,12,02,09,05,984.87
2021,12,02,09,06,983.68
2021,12,02,09,07,983.68
2021,12,02,09,08,983.68
2021,12,02,09,09,983.68
2021,12,02,09,10,982.81
2021,12,02,09,11,982.59
2021,12,02,09,12,983.95
2021,12,02,09,13,984.29
2021,12,02,09,14,984.29
2021,12,02,09,15,984.29
2021,12,02,09,16,984.29
2021,12,02,09,17,987.27
2021,12,02,09,18,988.01
2021,12,02,09,19,986.39
2021,12,02,09,20,985.98
2021,12,02,09,21,985.98
2021,12,02,09,22,985.98
2021,12,02,09,23,985.98
2021,12,02,09,24,983.65
2021,12,02,09,25,983.07
2021,12,02,09,26,983.07
2021,12,02,09,27,983.07
2021,12,02,09,28,983.07
2021,12,02,09,29,983.07
2021,12,02,09,30,983.07
2021,12,02,09,31,983.07
2021,12,02,09,32,983.07
2021,12,02,09,33,983.07
2021,12,02,09,34,983.07
2021,12,02,09,35,983.07
2021,12,02,09,36,983.07
2021,12,02,09,37,983.07
2021,12,02,09,38,983.07
2021,12,02,09,39,983.07
2021,12,02,09,40,983.07
2021,12,02,09,41,977.46
2021,12,02,09,42,975.59
2021,12,02,09,43,975.59
2021,12,02,09,44,975.59
2021,12,02,09,45,975.59
2021,12,02,09,46,975.59
2021,12,02,09,47,975.59
2021,12,02,09,48,982.63
2021,12,02,09,49,984.39
2021,12,02,09,50,984.39
2021,12,02,09,51,984.39
2021,12,02,09,52,984.39
2021,12,02,09,53,984.39
2021,12,02,09,54,984.39
2021,12,02,09,55,984.39
2021,12,02,09,56,984.39
2021,12,02,09,57,984.39
2021,12,02,09,58,984.39
2021,12,02,09,59,984.39
2021,12,02,10,00,984.39
2021,12,02,10,01,984.39
2021,12,02,10,02,984.39
2021,12,02,10,03,984.39
2021,12,02,10,04,984.39
2021,12,02,10,05,984.39
2021,12,02,10,06,984.39
2021,12,02,10,07,984.39
2021,12,02,10,08,984.39
2021,12,02,10,09,984.39
2021,12,02,10,10,984.39
2021,12,02,10,11,984.39
2021,12,02,10,12,984.39
2021,12,02,10,13,984.39
2021,12,02,10,14,984.39
2021,12,02,10,15,984.39
2021,12,02,10,16,984.39
2021,12,02,10,17,984.39
2021,12,02,10,18,984.39
2021,12,02,10,19,984.39
2021,12,02,10,20,984.39
2021,12,02,10,21,984.39
2021,12,02,10,22,984.39
2021,12,02,10,23,984.39
2021,12,02,10,24,984.39
2021,12,02,10,25,984.39
2021,12,02,10,26,984.39
2021,12,02,10,27,984.39
2021,12,02,10,28,984.39
2021,12,02,10,29,984.39
2021,12,02,10,30,984.39
2021,12,02,10,31,984.39
2021,12,02,10,32,984.39
2021,12,02,10,33,984.39
2021,12,02,10,34,984.39
2021,12,02,10,35,984.39
2021,12,02,10,36,984.39
2021,12,02,10,37,984.39
2021,12,02,10,38,984.39
2021,12,02,10,39,984.39
2021,12,02,10,40,984.39
2021,12,02,10,41,984.39
2021,12,02,10,42,984.39
2021,12,02,10,43,984.39
2021,12,02,10,44,984.39
2021,12,02,10,45,984.39
2021,12,02,10,46,984.39
2021,12,02,10,47,984.39
2021,12,02,10,48,984.39
2021,12,02,10,49,984.39
2021,12,02,10,50,984.39
2021,12,02,10,51,984.39
2021,12,02,10,52,984.39
2021,12,02,10,53,984.39
2021,12,02,10,54,984.39
2021,12,02,10,55,984.39
2021,12,02,10,56,984.39
2021,12,02,10,57,984.39
2021,12,02,10,58,984.39
2021,12,02,10,59,984.39
2021,12,02,11,00,984.39
2021,12,02,11,01,984.39
2021,12,02,11,02,984.39
2021,12,02,11,03,984.39
2021,12,02,11,04,984.39
2021,12,02,11,05,984.39
2021,12,02,11,06,984.39
2021,12,02,11,07,984.39
2021,12,02,11,08,984.39
2021,12,02,11,09,984.39
2021,12,02,11,10,984.39
2021,12,02,11,11,984.39
2021,12,02,11,12,984.39
2021,12,02,11,13,984.39
2021,12,02,11,14,984.39
2021,12,02,11,15,984.39
2021,12,02,11,16,984.39
2021,12,02,11,17,984.39
2021,12,02,11,18,984.39
2021,12,02,11,19,984.39
2021,12,02,11,20,984.39
2021,12,02,11,21,984.39
2021,12,02,11,22,984.39
2021,12,02,11,23,984.39
2021,12,02,11,24,984.39
2021,12,02,11,25,984.39
2021,12,02,11,26,984.39
2021,12,02,11,27,984.39
2021,12,02,11,28,984.39
2021,12,02,11,29,984.39
2021,12,02,11,30,984.39
2021,12,02,11,31,984.39
2021,12,02,11,32,984.39
2021,12,02,11,33,984.39
2021,12,02,11,34,984.39
2021,12,02,11,35,984.39
2021,12,02,11,36,984.39
2021,12,02,11,37,984.39
2021,12,02,11,38,984.39
2021,12,02,11,39,984.39
2021,12,02,11,40,984.39
2021,12,02,11,41,984.39
2021,12,02,11,42,984.39
2021,12,02,11,43,984.39
2021,12,02,11,44,984.39
2021,12,02,11,45,984.39
2021,12,02,11,46,984.39
2021,12,02,11,47,984.39
2021,12,02,11,48,984.39
2021,12,02,11,49,967.57
2021,12,02,11,50,963.09
2021,12,02,11,51,963.09
2021,12,02,11,52,963.09
2021,12,02,11,53,963.09
2021,12,02,11,54,963.09
2021,12,02,11,55,963.09
2021,12,02,11,56,963.09
2021,12,02,11,57,963.09
2021,12,02,11,58,963.09
2021,12,02,11,59,963.09
2021,12,02,12,00,963.09
2021,12,02,12,01,963.09
2021,12,02,12,02,963.09
2021,12,02,12,03,963.09
2021,12,02,12,04,963.09
2021,12,02,12,05,963.09
2021,12,02,13,02,1048.22
2021,12,02,13,03,1048.22
2021,12,02,13,04,1048.22
2021,12,02,13,05,1048.22
2021,12,02,13,06,1048.22
2021,12,02,13,07,1048.22
2021,12,02,13,08,1048.22
2021,12,02,13,09,1048.22
2021,12,02,13,10,1048.22
2021,12,02,13,11,1048.22
2021,12,02,13,12,1048.22
2021,12,02,13,13,1048.22
2021,12,02,13,14,1048.22
2021,12,02,13,15,1048.22
2021,12,02,13,16,1048.22
2021,12,02,13,17,1048.22
2021,12,02,13,18,1048.22
2021,12,02,13,19,1048.22
2021,12,02,13,20,1048.22
2021,12,02,13,21,1048.22
2021,12,02,13,22,1048.22
2021,12,02,13,23,1048.22
2021,12,02,13,24,1048.22
2021,12,02,13,25,1048.22
2021,12,02,13,26,1048.22
2021,12,02,13,27,1048.22
2021,12,02,13,28,1048.22
2021,12,02,13,29,1048.22
2021,12,02,13,30,1048.22
2021,12,02,13,31,1048.22
2021,12,02,13,32,1048.22
2021,12,02,13,33,1048.22
2021,12,02,13,34,1048.22
2021,12,02,13,35,1048.22
2021,12,02,13,36,939.05
2021,12,02,13,37,904.94
2021,12,02,13,38,904.94
2021,12,02,13,39,904.94
2021,12,02,13,40,904.94
2021,12,02,13,41,904.94
2021,12,02,13,42,904.94
2021,12,02,13,43,904.94
2021,12,02,13,44,904.94
2021,12,02,13,45,904.94
2021,12,02,13,46,904.94
2021,12,02,13,47,904.94
2021,12,02,13,48,904.94
2021,12,02,13,49,904.94
2021,12,02,13,50,904.94
2021,12,02,13,51,904.94
2021,12,02,13,52,904.94
2021,12,02,13,53,904.94
2021,12,02,13,54,904.94
2021,12,02,13,55,904.94
2021,12,02,13,56,904.94
2021,12,02,13,57,904.94
2021,12,02,13,58,904.94
2021,12,02,13,59,904.94
2021,12,02,14,00,904.94
2021,12,02,14,01,904.94
2021,12,02,14,02,904.94
2021,12,02,14,03,904.94
2021,12,02,14,04,904.94
2021,12,02,14,05,904.94
2021,12,02,14,06,904.94
2021,12,02,14,07,904.94
2021,12,02,14,08,904.94
2021,12,02,14,09,904.94
2021,12,02,14,10,904.94
2021,12,02,14,11,904.94
2021,12,02,14,12,904.94
2021,12,02,14,13,904.94
2021,12,02,14,14,904.94
2021,12,02,14,15,904.94
2021,12,02,14,16,904.94
2021,12,02,14,17,904.94
2021,12,02,14,18,904.94
2021,12,02,14,19,904.94
2021,12,02,14,20,904.94
2021,12,02,14,21,904.94
2021,12,02,14,22,904.94
2021,12,02,14,23,904.94
2021,12,02,14,24,904.94
2021,12,02,14,25,904.94
2021,12,02,14,26,904.94
2021,12,02,14,27,904.94
2021,12,02,14,28,904.94
2021,12,02,14,29,904.94
2021,12,02,14,30,904.94
2021,12,02,14,31,904.94
2021,12,02,14,32,904.94
2021,12,02,14,33,904.94
2021,12,02,14,34,904.94
2021,12,02,14,35,904.94
2021,12,02,14,36,904.94
2021,12,02,14,37,904.94
2021,12,02,14,38,904.94
2021,12,02,14,39,904.94
2021,12,02,14,40,904.94
2021,12,02,14,41,904.94
2021,12,02,14,42,904.94
2021,12,02,14,43,904.94
2021,12,02,14,44,904.94
2021,12,02,14,45,904.94
2021,12,02,14,46,904.94
2021,12,02,14,47,904.94
2021,12,02,14,48,904.94
2021,12,02,14,49,904.94
2021,12,02,14,50,904.94
2021,12,02,14,51,904.94
2021,12,02,14,52,904.94
2021,12,02,14,53,904.94
2021,12,02,14,54,904.94
2021,12,02,14,55,904.94
2021,12,02,14,56,904.94
2021,12,02,14,57,904.94
2021,12,02,14,58,904.94
2021,12,02,14,59,904.94
2021,12,02,15,00,904.94
2021,12,02,15,01,904.94
2021,12,02,15,02,904.94
2021,12,02,15,03,904.94
2021,12,02,15,04,904.94
2021,12,02,15,05,904.94
2021,12,02,15,06,904.94
2021,12,02,15,07,904.94
2021,12,02,15,08,904.94
2021,12,02,15,09,904.94
2021,12,02,15,10,904.94
2021,12,02,15,11,904.94
2021,12,02,15,12,904.94
2021,12,02,15,13,904.94
2021,12,02,15,14,904.94
2021,12,02,15,15,904.94
2021,12,02,16,36,905.39
2021,12,02,16,37,905.39
2021,12,02,16,38,905.39
2021,12,02,16,39,905.39
2021,12,02,16,40,905.39
2021,12,02,16,41,905.39
2021,12,02,16,42,905.39
2021,12,02,16,43,905.39
2021,12,02,16,44,905.39
2021,12,02,16,45,905.39
2021,12,02,16,46,905.39
2021,12,02,16,47,918.12
2021,12,02,16,48,923.57
2021,12,02,16,49,923.57
2021,12,02,16,50,923.57
2021,12,02,16,51,923.57
2021,12,02,16,52,923.57
2021,12,02,16,53,923.57
2021,12,02,16,54,923.57
2021,12,02,16,55,923.57
2021,12,02,16,56,923.57
2021,12,02,16,57,923.57
2021,12,02,16,58,923.57
2021,12,02,16,59,923.57
2021,12,02,17,00,923.57
2021,12,02,17,01,923.57
2021,12,02,17,02,923.57
2021,12,02,17,03,923.57
2021,12,02,17,04,923.57
2021,12,02,17,05,923.57
2021,12,02,17,06,923.57
2021,12,02,17,07,923.57
2021,12,02,17,08,923.57
2021,12,02,17,09,959.93
2021,12,02,17,10,975.52
2021,12,02,17,11,975.52
2021,12,02,17,12,975.52
2021,12,02,17,13,971.42
2021,12,02,17,14,969.66
2021,12,02,17,15,969.66
2021,12,02,17,16,969.66
2021,12,02,17,17,969.66
2021,12,02,17,18,969.66
2021,12,02,17,19,969.66
2021,12,02,17,20,969.66
2021,12,02,17,21,969.66
2021,12,02,17,22,969.66
2021,12,02,17,23,969.66
2021,12,02,17,24,969.66
2021,12,02,17,25,969.66
2021,12,02,17,26,969.66
2021,12,02,17,27,969.66
2021,12,02,17,28,969.66
2021,12,02,17,29,969.66
2021,12,02,17,30,969.66
2021,12,02,17,31,969.66
2021,12,02,17,32,969.66
2021,12,02,17,33,968.33
2021,12,02,17,34,968.19
2021,12,02,17,35,968.47
2021,12,02,17,36,968.51
2021,12,02,17,37,968.51
2021,12,02,17,38,968.51
2021,12,02,17,39,968.51
2021,12,02,17,40,968.51
2021,12,02,17,41,968.51
2021,12,02,17,42,968.51
2021,12,02,17,43,968.51
2021,12,02,17,44,968.51
2021,12,02,17,45,968.51
2021,12,02,17,46,968.51
2021,12,02,17,47,968.51
2021,12,02,17,48,968.51
2021,12,02,17,49,968.51
2021,12,02,17,50,968.51
2021,12,02,17,51,968.51
2021,12,02,17,52,968.51
2021,12,02,17,53,968.51
2021,12,02,17,54,968.51
2021,12,02,17,55,968.51
2021,12,02,17,56,968.51
2021,12,02,17,57,968.51
2021,12,02,17,58,968.51
2021,12,02,17,59,986.55
2021,12,02,18,00,994.28
2021,12,02,18,01,994.28
2021,12,02,18,02,1001.41
2021,12,02,18,03,1004.47
2021,12,02,18,04,1004.47
2021,12,02,18,05,1004.47
2021,12,02,18,06,1004.47
2021,12,02,18,07,1004.47
2021,12,02,18,08,1004.47
2021,12,02,18,09,1004.47
2021,12,02,18,10,1004.47
2021,12,02,18,11,1004.47
2021,12,02,18,12,1004.47
2021,12,02,18,13,1004.47
2021,12,02,18,14,1004.47
2021,12,02,18,15,1004.47
2021,12,02,18,16,995.16
2021,12,02,18,17,991.84
2021,12,02,18,18,991.84
2021,12,02,18,19,991.84
2021,12,02,18,20,991.84
2021,12,02,18,21,991.84
2021,12,02,18,22,991.84
2021,12,02,18,23,991.84
2021,12,02,18,24,991.84
2021,12,02,18,25,991.84
2021,12,02,18,26,991.84
2021,12,02,18,27,991.84
2021,12,02,18,28,991.84
2021,12,02,18,29,991.84